Weather History for KOZA - April, 2014

Change the Weather History Date:

Saturday, April 26, 2014

  Actual Average Record
Temperature  
Mean Temperature 78 °F -  
Max Temperature 87 °F 81 °F 102 °F (2012)
Min Temperature 68 °F 54 °F 50 °F (2015)
Cooling Degree Days 12    
Growing Degree Days 28 (Base 50)    
Moisture  
Dew Point 58 °F    
Average Humidity 53    
Maximum Humidity 83    
Minimum Humidity 31    
Precipitation  
Precipitation 0.00 in - - ()
Sea Level Pressure  
Sea Level Pressure 29.76 in    
Wind  
Wind Speed 16 mph (South)    
Max Wind Speed 21 mph    
Max Gust Speed 29 mph    
Visibility 10 miles    
Events      
Averages and records for this station are not official NWS values.
T = Trace of Precipitation, MM = Missing Value Source: NWS Daily Summary

Daily Weather History Graph

Daily Weather History Graph

Search for Another Location

Airport or City:

Trip Planner

Search our weather history database for the weather conditions in past years. The results will help you decide how hot, cold, wet, or windy it might be!

Date:

Astronomy

Apr. 26, 2014 Rise Set
Actual Time 7:05 AM CDT 8:20 PM CDT
Civil Twilight 6:40 AM CDT 8:45 PM CDT
Nautical Twilight 6:10 AM CDT 9:15 PM CDT
Astronomical Twilight 5:39 AM CDT 9:46 PM CDT
Moon 5:18 AM CDT (4/26) 6:00 PM CDT (4/26)
Length of Visible Light 14h 05m
Length of Day
13h 14m
Waning Crescent, 8% of the Moon is Illuminated
Apr 26
Waning Crescent
Apr 29
New
May 6
First Quarter
May 14
Full
May 21
Last Quarter

Hourly Weather History & Observations

Time (CDT) Temp. Heat Index Dew Point Humidity Pressure Visibility Wind Dir Wind Speed Gust Speed Precip Events Conditions
12:15 AM 77.0 °F - 55.4 °F 47% 29.88 in 10.0 mi South 16.1 mph 28.8 mph N/A   Clear
12:35 AM 77.0 °F - 55.4 °F 47% 29.88 in 10.0 mi South 17.3 mph 28.8 mph N/A   Clear
12:55 AM 75.2 °F - 57.2 °F 53% 29.88 in 10.0 mi South 17.3 mph 26.5 mph N/A   Clear
1:15 AM 75.2 °F - 57.2 °F 53% 29.87 in 10.0 mi South 16.1 mph 28.8 mph N/A   Clear
1:35 AM 73.4 °F - 57.2 °F 57% 29.86 in 10.0 mi South 15.0 mph 19.6 mph N/A   Clear
1:55 AM 73.4 °F - 57.2 °F 57% 29.86 in 10.0 mi South 12.7 mph 21.9 mph N/A   Clear
2:15 AM 73.4 °F - 59.0 °F 61% 29.86 in 10.0 mi South 16.1 mph 21.9 mph N/A   Clear
2:35 AM 71.6 °F - 59.0 °F 64% 29.85 in 10.0 mi South 17.3 mph 25.3 mph N/A   Clear
2:55 AM 71.6 °F - 59.0 °F 64% 29.84 in 10.0 mi South 17.3 mph 23.0 mph N/A   Clear
3:15 AM 71.6 °F - 59.0 °F 64% 29.84 in 10.0 mi South 15.0 mph 23.0 mph N/A   Clear
3:35 AM 71.6 °F - 59.0 °F 64% 29.83 in 10.0 mi South 17.3 mph 24.2 mph N/A   Clear
3:55 AM 71.6 °F - 59.0 °F 64% 29.83 in 10.0 mi South 18.4 mph 25.3 mph N/A   Clear
4:15 AM 69.8 °F - 59.0 °F 68% 29.83 in 10.0 mi South 17.3 mph 20.7 mph N/A   Clear
4:35 AM 69.8 °F - 60.8 °F 73% 29.82 in 10.0 mi South 13.8 mph 19.6 mph N/A   Clear
4:55 AM 69.8 °F - 60.8 °F 73% 29.82 in 10.0 mi South 15.0 mph 21.9 mph N/A   Clear
5:15 AM 69.8 °F - 60.8 °F 73% 29.82 in 10.0 mi South 13.8 mph 19.6 mph N/A   Clear
5:35 AM 68.0 °F - 60.8 °F 78% 29.83 in 10.0 mi South 9.2 mph 16.1 mph N/A   Clear
5:55 AM 68.0 °F - 60.8 °F 78% 29.83 in 10.0 mi South 12.7 mph - N/A   Clear
6:15 AM 68.0 °F - 62.6 °F 83% 29.82 in 10.0 mi South 13.8 mph 23.0 mph N/A   Clear
6:35 AM 68.0 °F - 62.6 °F 83% 29.83 in 10.0 mi SSW 16.1 mph 23.0 mph N/A   Clear
6:55 AM 68.0 °F - 62.6 °F 83% 29.84 in 10.0 mi South 12.7 mph 21.9 mph N/A   Clear
7:15 AM 68.0 °F - 62.6 °F 83% 29.84 in 7.0 mi South 15.0 mph 24.2 mph N/A   Clear
7:35 AM 68.0 °F - 60.8 °F 78% 29.82 in 7.0 mi South 18.4 mph 26.5 mph N/A   Clear
7:55 AM 69.8 °F - 60.8 °F 73% 29.83 in 5.0 mi South 17.3 mph 24.2 mph N/A   Haze
8:15 AM 69.8 °F - 60.8 °F 73% 29.83 in 7.0 mi South 17.3 mph 24.2 mph N/A   Clear
8:35 AM 69.8 °F - 60.8 °F 73% 29.84 in 7.0 mi South 15.0 mph 20.7 mph N/A   Clear
8:55 AM 71.6 °F - 60.8 °F 69% 29.85 in 7.0 mi South 11.5 mph - N/A   Clear
9:15 AM 71.6 °F - 60.8 °F 69% 29.85 in 7.0 mi South 13.8 mph 18.4 mph N/A   Clear
9:35 AM 73.4 °F - 60.8 °F 65% 29.84 in 10.0 mi South 15.0 mph - N/A   Clear
9:55 AM 73.4 °F - 60.8 °F 65% 29.85 in 10.0 mi South 9.2 mph 18.4 mph N/A   Clear
10:15 AM 75.2 °F - 60.8 °F 61% 29.84 in 10.0 mi SSW 13.8 mph 19.6 mph N/A   Clear
10:35 AM 77.0 °F - 60.8 °F 57% 29.83 in 10.0 mi South 12.7 mph - N/A   Clear
10:55 AM 77.0 °F - 60.8 °F 57% 29.83 in 10.0 mi South 10.4 mph 18.4 mph N/A   Clear
11:15 AM 78.8 °F - 60.8 °F 54% 29.82 in 10.0 mi South 15.0 mph - N/A   Clear
11:35 AM 82.4 °F 82.5 °F 59.0 °F 45% 29.82 in 10.0 mi South 15.0 mph 19.6 mph N/A   Clear
11:55 AM 80.6 °F 81.1 °F 59.0 °F 48% 29.81 in 10.0 mi South 18.4 mph - N/A   Clear
12:15 PM 82.4 °F 82.0 °F 57.2 °F 42% 29.81 in 10.0 mi SSW 18.4 mph 21.9 mph N/A   Clear
12:35 PM 86.0 °F 84.5 °F 55.4 °F 35% 29.79 in 10.0 mi South 19.6 mph 24.2 mph N/A   Clear
12:55 PM 86.0 °F 84.9 °F 57.2 °F 37% 29.78 in 10.0 mi South 19.6 mph 24.2 mph N/A   Clear
1:15 PM 86.0 °F 84.5 °F 55.4 °F 35% 29.77 in 10.0 mi South 13.8 mph 19.6 mph N/A   Clear
1:35 PM 86.0 °F 84.5 °F 55.4 °F 35% 29.76 in 10.0 mi South 16.1 mph 23.0 mph N/A   Clear
1:55 PM 87.8 °F 86.1 °F 55.4 °F 33% 29.75 in 10.0 mi South 15.0 mph 21.9 mph N/A   Clear
2:15 PM 86.0 °F 84.5 °F 55.4 °F 35% 29.74 in 10.0 mi South 16.1 mph 21.9 mph N/A   Clear
2:35 PM 87.8 °F 85.7 °F 53.6 °F 31% 29.73 in 10.0 mi SSW 17.3 mph 24.2 mph N/A   Clear
2:55 PM 87.8 °F 85.7 °F 53.6 °F 31% 29.73 in 10.0 mi SSW 19.6 mph 25.3 mph N/A   Clear
3:15 PM 87.8 °F 85.7 °F 53.6 °F 31% 29.72 in 10.0 mi South 13.8 mph 21.9 mph N/A   Clear
3:35 PM 87.8 °F 85.7 °F 53.6 °F 31% 29.70 in 10.0 mi South 16.1 mph 23.0 mph N/A   Clear
3:55 PM 87.8 °F 85.7 °F 53.6 °F 31% 29.70 in 10.0 mi South 16.1 mph 20.7 mph N/A   Clear
4:15 PM 87.8 °F 85.7 °F 53.6 °F 31% 29.69 in 10.0 mi South 9.2 mph 24.2 mph N/A   Clear
4:35 PM 86.0 °F 84.2 °F 53.6 °F 33% 29.69 in 10.0 mi South 17.3 mph 23.0 mph N/A   Clear
4:55 PM 87.8 °F 85.7 °F 53.6 °F 31% 29.68 in 10.0 mi South 16.1 mph 21.9 mph N/A   Clear
5:15 PM 87.8 °F 85.7 °F 53.6 °F 31% 29.67 in 10.0 mi South 13.8 mph 24.2 mph N/A   Clear
5:35 PM 87.8 °F 85.7 °F 53.6 °F 31% 29.66 in 10.0 mi South 12.7 mph 24.2 mph N/A   Clear
5:55 PM 87.8 °F 85.7 °F 53.6 °F 31% 29.65 in 10.0 mi South 13.8 mph 23.0 mph N/A   Clear
6:15 PM 86.0 °F 84.2 °F 53.6 °F 33% 29.65 in 10.0 mi South 15.0 mph 23.0 mph N/A   Clear
6:35 PM 86.0 °F 84.2 °F 53.6 °F 33% 29.65 in 10.0 mi South 13.8 mph 20.7 mph N/A   Clear
6:55 PM 84.2 °F 82.8 °F 53.6 °F 35% 29.65 in 10.0 mi South 18.4 mph 23.0 mph N/A   Clear
7:15 PM 82.4 °F 81.4 °F 53.6 °F 37% 29.64 in 10.0 mi South 19.6 mph 23.0 mph N/A   Clear
7:35 PM 82.4 °F 81.7 °F 55.4 °F 39% 29.63 in 10.0 mi South 16.1 mph 21.9 mph N/A   Clear
7:55 PM 82.4 °F 81.7 °F 55.4 °F 39% 29.64 in 10.0 mi South 16.1 mph 24.2 mph N/A   Clear
8:15 PM 80.6 °F 80.5 °F 55.4 °F 42% 29.64 in 10.0 mi South 13.8 mph 18.4 mph N/A   Clear
8:35 PM 80.6 °F 80.5 °F 55.4 °F 42% 29.64 in 10.0 mi South 20.7 mph - N/A   Clear
9:15 PM 78.8 °F - 55.4 °F 44% 29.65 in 10.0 mi South 18.4 mph 21.9 mph N/A   Clear
9:35 PM 78.8 °F - 57.2 °F 47% 29.65 in 10.0 mi SSE 12.7 mph 21.9 mph N/A   Clear
9:55 PM 77.0 °F - 59.0 °F 54% 29.66 in 10.0 mi South 18.4 mph 23.0 mph N/A   Clear
10:15 PM 77.0 °F - 59.0 °F 54% 29.67 in 10.0 mi South 19.6 mph 25.3 mph N/A   Clear
10:35 PM 77.0 °F - 59.0 °F 54% 29.66 in 10.0 mi South 13.8 mph 20.7 mph N/A   Clear
10:55 PM 75.2 °F - 59.0 °F 57% 29.66 in 10.0 mi South 10.4 mph 17.3 mph N/A   Clear
11:15 PM 73.4 °F - 59.0 °F 61% 29.66 in 10.0 mi South 9.2 mph - N/A   Clear
11:35 PM 73.4 °F - 59.0 °F 61% 29.66 in 10.0 mi South 11.5 mph - N/A   Clear
11:55 PM 73.4 °F - 59.0 °F 61% 29.65 in 10.0 mi South 13.8 mph - N/A   Clear